ROMMA est une association bénévole à but non lucratif. Votre soutien est indispensable : ADHERER à ROMMA ou FAIRE un DON

Le Versoud - (38, Isère)

Vallée du Grésivaudan (220 m)   Longitude: 05° 51' 44" E   Latitude: 45° 13' 06" N Station partenaire n°6
 

Détail journalier du     <<     >>

Température Precipitation Humidité Pression Vent Dir Rafale Dir. rafale Ensol.
Heure (°C) (mm) (%) (hPa) (km/h) (km/h) (min)
01:00 5.7092101400---0
02:00 5.0093101400---0
03:00 4.7093101400---0
04:00 4.1093101300---0
05:00 3.3094101300---0
06:00 2.8094101200---0
07:00 2.4094101200---0
08:00 2.70.294101200---0
09:00 5.3093101200---15
10:00 9.9069101205O60
11:00 14.505410111SO19SSE50
12:00 17.104710114SSO27SO55
13:00 19.103910102SSO18SO15
14:00 21.103210104S23SSO15
15:00 19.803510103SO27SO15
16:00 17.903910111S19SSO0
17:00 15.804910123SSE24SSO0
18:00 9.90.46510162N23N0
19:00 7.34.67910182---21ESE0
20:00 6.00.48610191---16NE0
21:00 6.20871018013ENE0
22:00 6.1089101808NE0
23:00 6.00881019018NNO0
minuit 5.4089101800---0

Graphique du 17-03-2019

 

Serveur OMMA